When you browse on this site, cookies collect data to enhance your experience and personalize the content and advertising you see.
Visit our Privacy Policy to learn more. By continuing to use the site, you agree to this use of cookies and data.
  • Em Portugal
  • Lista de países
  • Para 7 dias
  • Temperatura da água
  • Mapas de satélite
  • Mapa do tempo
  • Widgets de tempo
  • user-avatar
    Iniciar Sessão

    Previsão horária em Sunny Beach

    Hoje, 19 Fevereiro, Terça-feira

    Tempo Temperatura Precipitação Vento Pressão Humidade
    00:00 +6°C° 0 mm 1 m/s 742 mmHg 72%
    01:00 +6°C° 0 mm 1 m/s 742 mmHg 73%
    02:00 +6°C° 0 mm 1 m/s 741 mmHg 73%
    03:00 +6°C° 0 mm 1 m/s 741 mmHg 73%
    04:00 +5°C° 0 mm 1 m/s 741 mmHg 74%
    05:00 +5°C° 0 mm 1 m/s 741 mmHg 74%
    06:00 +5°C° 0 mm 1 m/s 741 mmHg 74%
    07:00 +6°C° 0 mm 1 m/s 741 mmHg 75%
    08:00 +6°C° 0 mm 1 m/s 741 mmHg 75%
    09:00 +8°C° 0 mm 1 m/s 741 mmHg 69%
    10:00 +10°C° 0 mm 1 m/s 742 mmHg 64%
    11:00 +12°C° 0 mm 2 m/s 742 mmHg 58%
    12:00 +12°C° 0 mm 2 m/s 741 mmHg 56%
    13:00 +13°C° 0 mm 2 m/s 741 mmHg 54%
    14:00 +14°C° 0 mm 2 m/s 741 mmHg 52%
    15:00 +13°C° 0 mm 2 m/s 741 mmHg 57%
    16:00 +12°C° 0 mm 2 m/s 740 mmHg 62%
    17:00 +12°C° 0 mm 2 m/s 740 mmHg 67%
    18:00 +9°C° 0 mm 2 m/s 740 mmHg 73%
    19:00 +8°C° 0 mm 2 m/s 740 mmHg 80%
    20:00 +7°C° 0 mm 2 m/s 740 mmHg 86%
    21:00 +7°C° 0 mm 2 m/s 740 mmHg 87%
    22:00 +7°C° 0 mm 1 m/s 739 mmHg 87%
    23:00 +7°C° 0 mm 1 m/s 739 mmHg 88%

    Amanhã, 20 Fevereiro, Quarta-feira

    Tempo Temperatura Precipitação Vento Pressão Humidade
    00:00 +7°C° 0 mm 1 m/s 739 mmHg 87%
    01:00 +7°C° 0 mm 1 m/s 739 mmHg 86%
    02:00 +6°C° 0 mm 1 m/s 739 mmHg 85%
    03:00 +6°C° 0 mm 1 m/s 739 mmHg 84%
    04:00 +6°C° 0 mm 1 m/s 738 mmHg 83%
    05:00 +6°C° 0 mm 1 m/s 738 mmHg 81%
    06:00 +6°C° 0 mm 1 m/s 738 mmHg 79%
    07:00 +6°C° 0 mm 1 m/s 738 mmHg 78%
    08:00 +6°C° 0 mm 1 m/s 738 mmHg 76%
    09:00 +7°C° 0 mm 2 m/s 738 mmHg 70%
    10:00 +9°C° 0 mm 2 m/s 738 mmHg 64%
    11:00 +13°C° 0 mm 2 m/s 738 mmHg 58%
    12:00 +13°C° 0 mm 2 m/s 738 mmHg 56%
    13:00 +14°C° 0 mm 2 m/s 738 mmHg 54%
    14:00 +14°C° 0 mm 3 m/s 738 mmHg 52%
    15:00 +15°C° 0 mm 2 m/s 738 mmHg 54%
    16:00 +14°C° 0 mm 2 m/s 738 mmHg 56%
    17:00 +14°C° 0 mm 1 m/s 737 mmHg 58%
    18:00 +12°C° 0 mm 1 m/s 738 mmHg 61%
    19:00 +11°C° 0 mm 1 m/s 738 mmHg 64%
    20:00 +10°C° 0 mm 1 m/s 738 mmHg 67%
    21:00 +8°C° 0 mm 2 m/s 738 mmHg 67%
    22:00 +8°C° 0 mm 2 m/s 739 mmHg 67%
    23:00 +8°C° 0 mm 2 m/s 739 mmHg 67%

    Depois de amanhã, 21 Fevereiro, Quinta-feira

    Tempo Temperatura Precipitação Vento Pressão Humidade
    00:00 +7°C° 0 mm 2 m/s 739 mmHg 69%
    01:00 +7°C° 0 mm 2 m/s 739 mmHg 70%
    02:00 +7°C° 0 mm 3 m/s 739 mmHg 72%
    03:00 +5°C° 0 mm 3 m/s 740 mmHg 73%
    04:00 +5°C° 0 mm 3 m/s 740 mmHg 75%
    05:00 +4°C° 0 mm 3 m/s 740 mmHg 76%
    06:00 +5°C° 0 mm 2 m/s 740 mmHg 76%
    07:00 +5°C° 0 mm 2 m/s 741 mmHg 77%
    08:00 +5°C° 0 mm 2 m/s 741 mmHg 77%
    09:00 +6°C° 0 mm 2 m/s 741 mmHg 73%
    10:00 +8°C° 0 mm 2 m/s 742 mmHg 70%
    11:00 +9°C° 0 mm 2 m/s 742 mmHg 66%
    12:00 +9°C° 0 mm 2 m/s 742 mmHg 64%
    13:00 +10°C° 0 mm 2 m/s 742 mmHg 63%
    14:00 +10°C° 0 mm 2 m/s 742 mmHg 61%
    15:00 +11°C° 0 mm 1 m/s 742 mmHg 62%
    16:00 +11°C° 0 mm 1 m/s 742 mmHg 63%
    17:00 +10°C° 0 mm 1 m/s 741 mmHg 64%
    18:00 +9°C° 0 mm 1 m/s 742 mmHg 70%
    19:00 +8°C° 0 mm 1 m/s 742 mmHg 75%
    20:00 +7°C° 0 mm 1 m/s 742 mmHg 81%
    21:00 +7°C° 0 mm 1 m/s 742 mmHg 81%
    22:00 +7°C° 0 mm 1 m/s 741 mmHg 81%
    23:00 +7°C° 0 mm 1 m/s 741 mmHg 81%

    22 Fevereiro, Sexta-feira

    Tempo Temperatura Precipitação Vento Pressão Humidade
    00:00 +5°C° 0 mm 2 m/s 741 mmHg 82%
    01:00 +5°C° 0 mm 2 m/s 741 mmHg 82%
    02:00 +5°C° 0 mm 2 m/s 740 mmHg 83%
    03:00 +5°C° 0 mm 2 m/s 740 mmHg 85%
    04:00 +5°C° 0 mm 2 m/s 739 mmHg 87%
    05:00 +5°C° 0 mm 2 m/s 739 mmHg 88%
    06:00 +5°C° 0 mm 2 m/s 738 mmHg 87%
    07:00 +4°C° 0 mm 3 m/s 738 mmHg 85%
    08:00 +5°C° 0 mm 3 m/s 738 mmHg 83%
    09:00 +5°C° 0.3 mm 3 m/s 737 mmHg 79%
    10:00 +5°C° 0.3 mm 4 m/s 737 mmHg 75%
    11:00 +6°C° 0.3 mm 4 m/s 736 mmHg 70%
    12:00 +6°C° 0.4 mm 4 m/s 736 mmHg 72%
    13:00 +6°C° 0.4 mm 4 m/s 735 mmHg 73%
    14:00 +6°C° 0.4 mm 4 m/s 735 mmHg 74%
    15:00 +6°C° 0.1 mm 4 m/s 734 mmHg 75%
    16:00 +7°C° 0.1 mm 3 m/s 734 mmHg 76%
    17:00 +7°C° 0.1 mm 3 m/s 734 mmHg 76%
    18:00 +7°C° 0.2 mm 3 m/s 734 mmHg 80%
    19:00 +7°C° 0.2 mm 3 m/s 735 mmHg 83%
    20:00 +5°C° 0.2 mm 3 m/s 735 mmHg 87%
    21:00 +3°C° 0.3 mm 5 m/s 735 mmHg 87%
    22:00 +2°C° 0.3 mm 7 m/s 736 mmHg 86%
    23:00 0°C° 0.3 mm 10 m/s 736 mmHg 86%

    23 Fevereiro, Sábado

    Tempo Temperatura Precipitação Vento Pressão Humidade
    00:00 -3°C° 0.3 mm 10 m/s 737 mmHg 86%
    01:00 -4°C° 0.3 mm 10 m/s 738 mmHg 85%
    02:00 -5°C° 0.3 mm 9 m/s 738 mmHg 85%
    03:00 -6°C° 0.5 mm 9 m/s 739 mmHg 87%
    04:00 -8°C° 0.5 mm 9 m/s 739 mmHg 88%
    05:00 -10°C° 0.5 mm 9 m/s 740 mmHg 90%
    06:00 -10°C° 0.4 mm 9 m/s 740 mmHg 85%
    07:00 -10°C° 0.4 mm 9 m/s 741 mmHg 80%
    08:00 -10°C° 0.4 mm 9 m/s 742 mmHg 75%
    09:00 -9°C° 0.1 mm 9 m/s 742 mmHg 72%
    10:00 -9°C° 0.1 mm 9 m/s 743 mmHg 68%
    11:00 -8°C° 0.1 mm 9 m/s 743 mmHg 64%
    12:00 -8°C° 0 mm 9 m/s 743 mmHg 62%
    13:00 -6°C° 0 mm 9 m/s 743 mmHg 59%
    14:00 -6°C° 0 mm 8 m/s 743 mmHg 57%
    15:00 -6°C° 0 mm 8 m/s 743 mmHg 58%
    16:00 -6°C° 0 mm 8 m/s 743 mmHg 58%
    17:00 -6°C° 0 mm 7 m/s 743 mmHg 59%
    18:00 -7°C° 0 mm 7 m/s 743 mmHg 61%
    19:00 -7°C° 0 mm 7 m/s 743 mmHg 62%
    20:00 -7°C° 0 mm 7 m/s 743 mmHg 64%
    21:00 -8°C° 0 mm 7 m/s 743 mmHg 64%
    22:00 -8°C° 0 mm 7 m/s 743 mmHg 64%
    23:00 -8°C° 0 mm 8 m/s 743 mmHg 65%

    24 Fevereiro, Domingo

    Tempo Temperatura Precipitação Vento Pressão Humidade
    00:00 -8°C° 0 mm 8 m/s 743 mmHg 65%
    01:00 -8°C° 0 mm 8 m/s 742 mmHg 65%
    02:00 -10°C° 0 mm 8 m/s 742 mmHg 65%
    03:00 -10°C° 0 mm 8 m/s 742 mmHg 66%
    04:00 -10°C° 0 mm 8 m/s 742 mmHg 67%
    05:00 -11°C° 0 mm 8 m/s 741 mmHg 67%
    06:00 -11°C° 0 mm 8 m/s 742 mmHg 67%
    07:00 -11°C° 0 mm 8 m/s 742 mmHg 68%
    08:00 -10°C° 0 mm 8 m/s 742 mmHg 68%
    09:00 -10°C° 0 mm 8 m/s 742 mmHg 65%
    10:00 -9°C° 0 mm 9 m/s 742 mmHg 62%
    11:00 -8°C° 0 mm 9 m/s 742 mmHg 60%
    12:00 -8°C° 0 mm 9 m/s 742 mmHg 58%
    13:00 -6°C° 0 mm 9 m/s 742 mmHg 57%
    14:00 -6°C° 0 mm 9 m/s 742 mmHg 56%
    15:00 -6°C° 0.1 mm 9 m/s 742 mmHg 57%
    16:00 -6°C° 0.1 mm 9 m/s 742 mmHg 59%
    17:00 -6°C° 0.1 mm 8 m/s 742 mmHg 61%
    18:00 -8°C° 0.1 mm 9 m/s 742 mmHg 64%
    19:00 -8°C° 0.1 mm 9 m/s 742 mmHg 66%
    20:00 -9°C° 0.1 mm 9 m/s 742 mmHg 68%
    21:00 -9°C° 0.1 mm 9 m/s 742 mmHg 69%
    22:00 -9°C° 0.1 mm 9 m/s 742 mmHg 70%
    23:00 -9°C° 0.1 mm 9 m/s 741 mmHg 71%
    Mostrar mais